Location: Plainartige
(45.6866°N, 1.7993°E)
Time: 23:47:03
(UTC+00:00)

AIST 2D - Visible Passes

Search period start: 27 June 2022 00:00
Search period end: 07 July 2022 00:00
Orbit: 433 x 449 km, 97.1° (Epoch: 27 June)

Date Brightness Start Highest point End Pass type
(mag) Time Alt. Az. Time Alt. Az. Time Alt. Az.
27 Jun ? 21:42:47 10° N 21:46:05 68° WNW 21:48:23 18° SSW visible
28 Jun ? 21:05:17 10° NNE 21:08:22 35° E 21:10:21 18° SSE visible
28 Jun ? 22:38:48 10° NNW 22:40:41 14° WNW 22:42:35 10° W visible
29 Jun ? 20:28:57 10° ENE 20:30:26 12° E 20:31:54 10° ESE visible
29 Jun ? 22:00:07 10° N 22:03:14 39° WNW 22:05:45 14° SW visible
30 Jun ? 21:22:17 10° NNE 21:25:35 61° E 21:27:41 20° S visible
01 Jul ? 20:45:11 10° NE 20:47:42 20° E 20:49:36 13° SE visible
01 Jul ? 22:17:32 10° NNW 22:20:17 24° WNW 22:23:01 10° SW visible
02 Jul ? 21:39:21 10° N 21:42:40 75° WNW 21:44:56 19° SSW visible
03 Jul ? 21:01:49 10° NNE 21:04:51 32° E 21:06:47 18° SSE visible
03 Jul ? 22:35:08 10° NNW 22:37:12 16° WNW 22:39:17 10° WSW visible
04 Jul ? 20:25:39 10° ENE 20:26:49 11° E 20:27:57 10° ESE visible
04 Jul ? 21:56:28 10° N 21:59:39 43° WNW 22:02:05 15° SW visible
05 Jul ? 21:18:35 10° NNE 21:21:53 55° E 21:23:55 21° S visible
05 Jul ? 22:53:33 10° NW 22:54:01 10° WNW 22:54:29 10° WNW visible
06 Jul ? 20:41:30 10° NE 20:43:54 18° E 20:45:43 13° SE visible
06 Jul ? 22:13:40 10° NNW 22:16:31 26° WNW 22:19:10 11° SW visible
